EUTELSAT 21B

Last updated on Tue Jul 08 2025 00:02:45 GMT+0000 (Coordinated Universal Time)

1 38992U 12062B 25188.56784532 .00000147 00000+0 00000+0 0 9996 2 38992 0.0678 17.1313 0002700 96.4436 38.2074 1.00272893 46377
UTC large
Height (km)
Speed (km/s)
/
Latitude / Longitude
Inclination (degrees)
Orbital Period (minutes)
Azimuth
Elevation
Range (km)
Doppler Factor

Next 0 passes for location: London (51.5072 / 0.1276)

Sorry there are no passes over London.